[[{"header":{"parameterUnit":"m.s-1","parameterCategory":1,"la1":30.2991,"la2":30.254,"lo1":-89.0895,"lo2":-89.0444,"dy":0.0017,"dx":0.0017,"nx":28,"ny":28,"refTime":"2024-04-30T21:00:00:Z","depth":0,"parameterNumber":2,"parameterNumberName":"U-component_of_WINDS"},"data":[0,0,0,0,0,0,0,0,0,0,0,0,0,0,0,0,0,0,0,0,0,0,0,0,0,0,0,0,0,0,0,0,0,0,0,0,0,0,0,0,0,0,0,0,0,0,0,0,0,0,0,0,0,0,0,0,0,0,-4.2588,-4.2588,0,-4.2562,-4.2562,-4.2561,-4.2492,-4.249,-4.2489,-4.2488,-4.2459,-4.246,-4.2461,0,0,0,0,0,0,0,0,0,0,0,0,0,-4.2578,-4.2579,-4.2588,-4.2588,-4.2587,-4.2562,-4.2562,-4.2561,-4.2492,-4.249,-4.2489,-4.2487,-4.2459,-4.246,-4.2461,0,0,0,0,0,0,0,0,0,0,0,0,0,-4.257,-4.2579,-4.2588,-4.255,-4.2546,-4.2562,-4.2562,-4.2561,-4.2493,-4.249,-4.2488,-4.2486,-4.2459,-4.246,-4.2461,-4.2511,0,0,-4.2464,-4.2464,0,0,0,0,0,0,0,0,-4.2571,-4.2571,-4.2556,-4.2552,-4.2548,-4.2528,-4.2548,-4.2544,-4.2493,-4.2513,-4.2488,-4.2485,-4.2484,-4.2483,-4.2483,-4.251,-4.2509,-4.2464,-4.2464,-4.2465,-4.2465,0,0,0,0,0,0,0,-4.2572,-4.2571,-4.2577,-4.2556,-4.2551,-4.2534,-4.2531,-4.2547,-4.2511,-4.2511,-4.2506,-4.2504,-4.2481,-4.2482,-4.2481,-4.2508,-4.2464,-4.2465,-4.2465,-4.2466,-4.2577,-4.2579,0,0,0,0,0,0,-4.2578,-4.2572,-4.2578,-4.2577,-4.2554,-4.2536,-4.2532,-4.2537,-4.2511,-4.2505,-4.2506,-4.2501,-4.2481,-4.248,-4.248,-4.2537,-4.2465,-4.2466,-4.2466,-4.2574,-4.2577,-4.258,0,0,0,0,0,0,-4.2578,-4.2579,-4.2579,-4.2573,-4.2572,-4.2539,-4.2544,-4.2537,-4.2537,-4.2507,-4.25,-4.2513,-4.248,-4.2479,-4.2504,-4.2535,-4.2466,-4.2467,-4.2571,-4.2575,-4.2578,-4.2651,0,0,0,0,0,0,-4.2578,-4.2579,-4.2597,-4.2574,-4.2573,-4.2604,-4.2546,-4.2538,-4.254,-4.2533,-4.2511,-4.2506,-4.2478,-4.2503,-4.2505,-4.2535,-4.2468,-4.2568,-4.2573,-4.2577,-4.2645,-4.2656,-4.2666,0,0,0,0,0,-4.2578,-4.2618,-4.2599,-4.26,-4.2595,-4.2606,-4.2605,-4.2572,-4.2542,-4.256,-4.2541,-4.2506,-4.2532,-4.2506,-4.2508,-4.2538,-4.2566,-4.2572,-4.2577,-4.2641,-4.2654,-4.2666,0,0,0,0,0,0,-4.2644,-4.2614,-4.2592,-4.2627,-4.262,-4.2594,-4.2615,-4.2587,-4.2587,-4.2581,-4.254,-4.2536,-4.2567,-4.2556,-4.2528,-4.2587,-4.2544,-4.255,-4.2592,-4.2604,-4.2614,-4.2615,-4.2468,0,0,0,0,0,-4.2664,-4.2675,-4.2648,-4.2681,-4.2679,-4.2649,-4.2652,-4.2628,-4.2618,-4.2614,-4.2597,-4.2589,-4.2595,-4.26,-4.2604,-4.2645,-4.2639,-4.2667,-4.2678,-4.2686,-4.269,-4.2712,-4.2723,-4.2597,-4.2597,-4.2597,0,0,-4.2702,-4.2687,-4.2697,-4.2695,-4.2686,-4.2698,-4.2646,-4.2661,-4.267,-4.2616,-4.2639,-4.2627,-4.2615,-4.2649,-4.2663,-4.264,-4.2725,-4.2693,-4.27,-4.2699,-4.2718,-4.273,-4.2741,-4.2601,-4.26,-4.26,0,0,-4.2778,-4.2769,-4.2795,-4.2789,-4.2777,-4.2757,-4.2764,-4.2744,-4.2734,-4.2757,-4.2717,-4.2728,-4.2739,-4.2733,-4.2731,-4.281,-4.2777,-4.2813,-4.2864,-4.2885,-4.2895,-4.2904,-4.293,-4.294,-4.2818,-4.2818,-4.2818,0,-4.2827,-4.2845,-4.2812,-4.2831,-4.2831,-4.2786,-4.2812,-4.2808,-4.2798,-4.2799,-4.2775,-4.279,-4.2779,-4.2811,-4.283,-4.2831,-4.2837,-4.2813,-4.2897,-4.2905,-4.2912,-4.2937,-4.2947,-4.2822,-4.2822,-4.2822,-4.2821,0,-4.2905,-4.2918,-4.2941,-4.2934,-4.2938,-4.296,-4.2932,-4.2939,-4.2917,-4.29,-4.2924,-4.291,-4.2911,-4.2918,-4.2895,-4.2947,-4.2933,-4.2904,-4.2859,-4.2929,-4.2951,-4.2961,-4.2828,-4.2827,-4.2826,-4.2825,0,0,-4.3017,-4.2996,-4.3004,-4.3001,-4.2987,-4.2996,-4.3018,-4.302,-4.3027,-4.3024,-4.304,-4.3053,-4.3026,-4.3025,-4.3002,-4.3021,-4.3083,-4.2989,-4.2988,-4.3005,-4.3138,-4.3158,-4.3169,-4.3064,-4.3065,-4.3067,-4.3138,0,-4.3088,-4.3122,-4.3096,-4.3135,-4.3147,-4.3106,-4.3125,-4.3119,-4.3105,-4.3113,-4.3098,-4.3107,-4.3072,-4.3071,-4.3089,-4.3072,-4.3109,-4.3067,-4.3077,-4.3077,-4.3077,-4.3181,-4.3201,-4.3269,-4.3147,-4.3148,-4.315,0,-4.3172,-4.3174,-4.3215,-4.32,-4.3204,-4.3221,-4.3222,-4.3231,-4.3224,-4.3212,-4.3213,-4.3185,-4.3206,-4.3166,-4.3193,-4.3165,-4.3169,-4.3162,-4.3164,-4.316,-4.3115,-4.3178,-4.329,-4.3299,-4.3163,-4.3162,-4.3161,0,-4.3248,-4.326,-4.3286,-4.3285,-4.3269,-4.3282,-4.3276,-4.3268,-4.3271,-4.3272,-4.3274,-4.3278,-4.3279,-4.3283,-4.3258,-4.3231,-4.3288,-4.3246,-4.3278,-4.3279,-4.3288,-4.3287,-4.3399,-4.3296,-4.3296,-4.3296,-4.3296,0,-4.3326,-4.3352,-4.332,-4.3336,-4.3364,-4.3335,-4.3364,-4.3354,-4.3347,-4.336,-4.3327,-4.334,-4.3308,-4.3318,-4.3299,-4.3324,-4.3326,-4.3316,-4.331,-4.3317,-4.3318,-4.3316,-4.3309,-4.3299,-4.3298,-4.3298,-4.3297,0,-4.3413,-4.3393,-4.3418,-4.3403,-4.3399,-4.3421,-4.3407,-4.3421,-4.3407,-4.3424,-4.3427,-4.3404,-4.3414,-4.3391,-4.3398,-4.3385,-4.342,-4.3409,-4.3422,-4.3418,-4.345,-4.3446,-4.3562,-4.3575,-4.3467,-4.3468,-4.3469,0,-4.3462,-4.3482,-4.3469,-4.3476,-4.3472,-4.3484,-4.3488,-4.3462,-4.3467,-4.3463,-4.3477,-4.3486,-4.349,-4.3509,-4.3492,-4.3498,-4.3484,-4.3525,-4.3484,-4.3491,-4.3481,-4.3479,-4.348,-4.3531,-4.3533,-4.3534,-4.3535,0,-4.3552,-4.3542,-4.3549,-4.3554,-4.3561,-4.3563,-4.3563,-4.3571,-4.3543,-4.3551,-4.3562,-4.3566,-4.3574,-4.3582,-4.3585,-4.3578,-4.3551,-4.3548,-4.3555,-4.3561,-4.3567,-4.3562,-4.3442,-4.3544,-4.3543,-4.3543,-4.3542,-4.3542,-4.362,-4.3635,-4.3629,-4.3639,-4.3637,-4.3639,-4.3651,-4.364,-4.3649,-4.3653,-4.3638,-4.3653,-4.3648,-4.3648,-4.3646,-4.3656,-4.3638,-4.3649,-4.3651,-4.3653,-4.3657,-4.3569,-4.3657,-4.3657,-4.3657,-4.3656,-4.3656,0,-4.3706,-4.3701,-4.3711,-4.3712,-4.3721,-4.3698,-4.3698,-4.3706,-4.3719,-4.3717,-4.3723,-4.3736,-4.3745,-4.3732,-4.3738,-4.3749,-4.3737,-4.3751,-4.3748,-4.3747,-4.3675,-4.3666,-4.3761,-4.3761,-4.3761,-4.3761,-4.3761,-4.3761,-4.3751,-4.3776,-4.3766,-4.379,-4.3785,-4.3799,-4.3801,-4.3803,-4.3801,-4.3817,-4.3825,-4.3817,-4.381,-4.3816,-4.3823,-4.3819,-4.3822,-4.384,-4.3831,-4.3763,-4.3752,-4.3742,-4.3734,-4.3842,-4.3842,-4.3903,-4.3903,-4.3904]},{"header":{"parameterUnit":"m.s-1","parameterCategory":1,"la1":30.2991,"la2":30.254,"lo1":-89.0895,"lo2":-89.0444,"dy":0.0017,"dx":0.0017,"nx":28,"ny":28,"refTime":"2024-04-30T21:00:00:Z","depth":0,"parameterNumber":3,"parameterNumberName":"V-component_of_WINDS"},"data":[0,0,0,0,0,0,0,0,0,0,0,0,0,0,0,0,0,0,0,0,0,0,0,0,0,0,0,0,0,0,0,0,0,0,0,0,0,0,0,0,0,0,0,0,0,0,0,0,0,0,0,0,0,0,0,0,0,0,4.32,4.3201,0,4.3265,4.3266,4.3267,4.3303,4.3303,4.3304,4.3304,4.3366,4.3368,4.3369,0,0,0,0,0,0,0,0,0,0,0,0,0,4.3105,4.3107,4.32,4.3201,4.3201,4.3265,4.3266,4.3267,4.3303,4.3303,4.3304,4.3304,4.3366,4.3368,4.3369,0,0,0,0,0,0,0,0,0,0,0,0,0,4.3156,4.3107,4.32,4.3227,4.3231,4.3265,4.3266,4.3267,4.3303,4.3303,4.3304,4.3304,4.3365,4.3367,4.337,4.338,0,0,4.3377,4.3378,0,0,0,0,0,0,0,0,4.3153,4.3159,4.3222,4.3226,4.3229,4.3276,4.3256,4.3305,4.3303,4.3275,4.3304,4.3304,4.3336,4.3341,4.3352,4.3383,4.3386,4.3377,4.3378,4.3379,4.338,0,0,0,0,0,0,0,4.3149,4.3157,4.3226,4.3223,4.3227,4.3236,4.3244,4.3265,4.3304,4.3278,4.3281,4.3288,4.3338,4.335,4.3354,4.3387,4.3377,4.3379,4.338,4.3381,4.3433,4.3433,0,0,0,0,0,0,4.3142,4.3153,4.3223,4.3228,4.3191,4.3238,4.3246,4.3261,4.3304,4.331,4.3288,4.329,4.3346,4.3351,4.3356,4.3374,4.3379,4.3382,4.3383,4.3433,4.3433,4.3433,0,0,0,0,0,0,4.314,4.3148,4.3221,4.3191,4.3201,4.3239,4.3256,4.3262,4.3275,4.3311,4.3318,4.3294,4.3346,4.3353,4.3375,4.3376,4.3383,4.3385,4.3433,4.3433,4.3433,4.3407,0,0,0,0,0,0,4.3137,4.3147,4.3151,4.3191,4.3203,4.3239,4.3256,4.3263,4.3279,4.3282,4.3318,4.3324,4.3347,4.3372,4.3377,4.338,4.3387,4.3433,4.3433,4.3433,4.3408,4.3406,4.3404,0,0,0,0,0,4.3133,4.3139,4.3151,4.3159,4.3209,4.3239,4.3245,4.3272,4.3279,4.3284,4.3308,4.3323,4.3376,4.3373,4.338,4.3383,4.3433,4.3433,4.3433,4.3409,4.3406,4.3404,0,0,0,0,0,0,4.3095,4.3145,4.3158,4.3178,4.3204,4.3245,4.3251,4.3268,4.3292,4.3293,4.3325,4.3333,4.3352,4.337,4.3367,4.3398,4.3406,4.3407,4.3385,4.3383,4.3382,4.3377,4.3388,0,0,0,0,0,4.309,4.3111,4.3152,4.3165,4.3178,4.3213,4.3226,4.3246,4.3273,4.3284,4.331,4.3335,4.3358,4.3371,4.3394,4.3411,4.342,4.3417,4.3415,4.3413,4.3414,4.3427,4.3426,4.3433,4.3433,4.3433,0,0,4.3077,4.3107,4.3118,4.3159,4.3181,4.3202,4.3221,4.3241,4.3257,4.3286,4.331,4.333,4.336,4.3381,4.3391,4.3396,4.3415,4.3413,4.3412,4.3413,4.3427,4.3426,4.3426,4.3433,4.3433,4.3433,0,0,4.3066,4.309,4.3105,4.3128,4.3164,4.3187,4.3191,4.323,4.3245,4.327,4.3293,4.3312,4.3349,4.3371,4.3387,4.3389,4.3404,4.3395,4.3386,4.3398,4.3397,4.3397,4.3399,4.3399,4.3396,4.3396,4.3396,0,4.3045,4.3079,4.311,4.3131,4.3149,4.3179,4.3195,4.3216,4.3255,4.3267,4.3273,4.3323,4.3346,4.3373,4.3374,4.3385,4.3391,4.339,4.3395,4.3395,4.3395,4.3398,4.3398,4.3394,4.3394,4.3395,4.3395,0,4.3053,4.3076,4.3084,4.3125,4.3144,4.3161,4.3196,4.3211,4.323,4.3253,4.3279,4.3307,4.3338,4.3346,4.3362,4.3376,4.3379,4.3389,4.3399,4.3393,4.3396,4.3397,4.3393,4.3393,4.3393,4.3394,0,0,4.3016,4.3078,4.308,4.3101,4.3144,4.3162,4.3182,4.3214,4.3227,4.3254,4.3272,4.3306,4.3317,4.3335,4.3355,4.3366,4.3368,4.3376,4.3377,4.3374,4.3387,4.3379,4.3379,4.3379,4.3379,4.3379,4.3385,0,4.3012,4.3051,4.3082,4.3109,4.3131,4.3163,4.318,4.3209,4.3232,4.3254,4.3279,4.3303,4.3315,4.3327,4.3339,4.3365,4.3371,4.3365,4.3396,4.3397,4.3387,4.338,4.3371,4.3374,4.3386,4.3386,4.3386,0,4.301,4.304,4.307,4.3114,4.3125,4.314,4.3174,4.3195,4.3228,4.3244,4.3267,4.3289,4.3312,4.332,4.3353,4.3348,4.3363,4.3378,4.3379,4.3383,4.3391,4.3384,4.3375,4.3376,4.3387,4.3387,4.3387,0,4.2982,4.3029,4.3055,4.3071,4.3122,4.3133,4.3155,4.3189,4.3207,4.3236,4.3249,4.3279,4.3296,4.3319,4.3349,4.3352,4.3379,4.3389,4.3394,4.3393,4.3397,4.3396,4.3391,4.3406,4.3406,4.3406,4.3406,0,4.2974,4.2991,4.3043,4.3058,4.308,4.3116,4.3136,4.316,4.3191,4.3212,4.324,4.3258,4.3297,4.332,4.3343,4.3368,4.3375,4.3389,4.3395,4.3387,4.3385,4.3396,4.3397,4.3406,4.3406,4.3406,4.3406,0,4.2945,4.2981,4.3011,4.3059,4.3071,4.3085,4.3126,4.3142,4.3169,4.3195,4.3203,4.3243,4.3273,4.3305,4.3344,4.336,4.3384,4.3392,4.3373,4.3377,4.338,4.3379,4.3381,4.3384,4.3397,4.3396,4.3396,0,4.2937,4.2952,4.3003,4.3021,4.3043,4.3069,4.3089,4.3126,4.3146,4.3187,4.3199,4.3231,4.3259,4.3304,4.3337,4.3368,4.3377,4.3376,4.3382,4.3374,4.3378,4.3377,4.338,4.3374,4.3374,4.3373,4.3373,0,4.292,4.2938,4.2967,4.3003,4.3027,4.3056,4.3087,4.3099,4.3142,4.3162,4.3194,4.3216,4.3259,4.3291,4.3326,4.3348,4.3368,4.3372,4.3375,4.3366,4.3355,4.3362,4.3369,4.3371,4.3371,4.3371,4.3371,4.3372,4.2903,4.2919,4.2958,4.299,4.3018,4.3047,4.3065,4.3096,4.3123,4.3162,4.3182,4.3214,4.325,4.3301,4.3323,4.3348,4.3354,4.3358,4.3359,4.3359,4.3358,4.3351,4.3354,4.3355,4.3355,4.3355,4.3355,0,4.2888,4.2916,4.2945,4.2989,4.3015,4.3034,4.307,4.3089,4.3118,4.3151,4.3179,4.3217,4.3249,4.3285,4.332,4.3333,4.3343,4.3341,4.334,4.3345,4.3349,4.3344,4.3332,4.3332,4.3332,4.3332,4.3332,4.3332,4.2883,4.2912,4.2936,4.2979,4.3007,4.304,4.3059,4.3086,4.3113,4.3155,4.3183,4.3208,4.3242,4.328,4.3311,4.3321,4.3332,4.3327,4.334,4.3343,4.3345,4.3346,4.3342,4.3329,4.3329,4.3333,4.3333,4.3333]}]]